Flag for U.S.A. Weather past 2 weeks in Fort Lauderdale, Florida, U.S.A.

Now
79 °F

Passing clouds.


Feels Like: 83 °F
Forecast: 79 / 85 °F
Wind: 14 mph from East

Location: Fort Lauderdale / Hollywood International Airport

Current Time: Sep 23, 2014 at 7:22:18 AM

Latest Report: Sep 23, 2014 at 6:53 AM


Visibility: 10 mi

Pressure: 29.96 "Hg

Humidity: 84%

Dew point: 74 °F

Location of Fort LauderdaleLocation

Historic Weather in Fort Lauderdale — Graph

°F

Fort Lauderdale temperature yesterday

Maximum temperature yesterday: 85 °F (at 11:53 AM)
Minimum temperature yesterday: 76 °F (at 12:53 AM)
Average temperature yesterday: 80 °F

Past Weeks' High & Low Weather Summary

 TemperatureHumidityPressure
High91 °F (Sep 17, 12:53 PM)100% (Sep 13, 3:53 AM)30.15 "Hg (Sep 13, 3:53 AM)
Low74 °F (Sep 12, 6:53 AM)49% (Sep 17, 2:53 PM)29.86 "Hg (Sep 18, 4:53 PM)
Average82 °F77%29.99 "Hg
* Reported Sep 8 5:53 AM — Sep 23 5:53 AM, Fort Lauderdale, Weather by CustomWeather, © 2014

Note: Actual official high and low records may vary slightly from our data, if they occured in-between our weather recording intervals... More about our weather records

Advertising

Fort Lauderdale weather history for previous 24 hours

 ConditionsComfort  
Time TempWeatherWind HumidityBarometerVisibility
5:53 AM
Sep 23
79 °FPassing clouds.9 mph84%29.96 "Hg10 mi
5:04 AM78 °FPassing clouds.10 mph87%29.96 "Hg10 mi
4:53 AM78 °FPassing clouds.7 mph84%29.95 "Hg10 mi
3:53 AM75 °FPassing clouds.3 mph96%29.95 "Hg10 mi
2:53 AM75 °FPassing clouds.No wind96%29.96 "Hg10 mi
1:53 AM75 °FPassing clouds.No wind96%29.98 "Hg10 mi
12:53 AM76 °FThunderstorms. Partly cloudy.14 mph91%30.01 "Hg7 mi
11:53 PM
Sep 22
77 °FPassing clouds.3 mph90%30.00 "Hg10 mi
10:53 PM78 °FThunderstorms. Partly cloudy.7 mph90%30.00 "Hg10 mi
9:53 PM78 °FPartly cloudy.5 mph76%30.00 "Hg10 mi
8:53 PM80 °FThunderstorms. Partly cloudy.7 mph79%29.98 "Hg10 mi
7:53 PM81 °FBroken clouds.6 mph82%29.99 "Hg10 mi
6:53 PM83 °FBroken clouds.7 mph74%29.97 "Hg10 mi
5:53 PM83 °FBroken clouds.5 mph70%29.95 "Hg10 mi
4:53 PM83 °FPartly sunny.7 mph70%29.95 "Hg10 mi
3:53 PM84 °FPartly sunny.6 mph72%29.95 "Hg10 mi
2:53 PM81 °FMostly cloudy.9 mph69%29.98 "Hg10 mi
1:53 PM82 °FBroken clouds.6 mph67%30.01 "Hg10 mi
12:53 PM84 °FBroken clouds.14 mph65%30.02 "Hg10 mi
11:53 AM85 °FPartly sunny.13 mph63%30.04 "Hg10 mi
10:53 AM83 °FPartly sunny.20 mph68%30.05 "Hg10 mi
9:53 AM84 °FBroken clouds.6 mph77%30.05 "Hg10 mi
8:53 AM83 °FPartly sunny.3 mph82%30.04 "Hg10 mi
7:53 AM78 °FPassing clouds.6 mph90%30.01 "Hg10 mi
Weather by CustomWeather, © 2014

See weather overviewHow to use our weather pages